Regional Weather Roundup
Issued by NWS Boston, MA

Home | Current Version | Previous Version | Text Only | Print | Product List | Glossary On
Versions: 1 2 3 4 5 6 7 8 9 10 11 12 13 14 15 16 17 18 19 20 21 22 23 24 25 26 27 28 29 30 31 32 33 34 35 36 37 38 39 40 41 42 43 44 45 46 47 48 49 50
365
ASUS41 KBOX 212210
RWRBOX

REGIONAL WEATHER ROUNDUP
NATIONAL WEATHER SERVICE TAUNTON MA
500 PM EST TUE FEB 21 2017

NOTE:  "FAIR" INDICATES FEW OR NO CLOUDS BELOW 12,000 FEET WITH NO
SIGNIFICANT WEATHER AND/OR OBSTRUCTIONS TO VISIBILITY.

MAZALL-212300-
EASTERN MASSACHUSETTS

CITY           SKY/WX    TMP DP  RH WIND       PRES   REMARKS
BOSTON         CLOUDY    38  29  70 SE10      30.23F WCI  31
BEVERLY        PTCLDY    37  28  70 SE7       30.22F WCI  32
LAWRENCE       CLOUDY    39  25  57 SE7       30.23F
BEDFORD        PTCLDY    38  25  59 SE9       30.20S WCI  31
BLUE HILL      NOT AVBL
NORWOOD        PTCLDY    44  18  35 S7        30.21F
MARSHFIELD     PTCLDY    37  27  65 SE7G14    30.23F
PLYMOUTH       CLOUDY    39  24  55 SE6       30.23F
TAUNTON        CLOUDY    42  22  44 S6        30.22F
NEW BEDFORD    CLOUDY    40  20  44 S10       30.23F
$$

MAZALL-212300-
CAPE COD AND THE ISLANDS

CITY           SKY/WX    TMP DP  RH WIND       PRES   REMARKS
FALMOUTH       PTCLDY    37  27  65 MISG      30.25F
HYANNIS        CLOUDY    38  26  62 S6        30.23F
CHATHAM        PTCLDY    38  26  62 SE3       30.26S
PROVINCETOWN   PTCLDY    38  26  62 SE6       30.25F
NANTUCKET      CLOUDY    37  26  64 SE6       30.25F
MARTHAS VNYRD  CLOUDY    38  26  62 SW7       30.25F
$$

MAZALL-212300-
CENTRAL AND WESTERN MASSACHUSETTS

CITY           SKY/WX    TMP DP  RH WIND       PRES   REMARKS
WORCESTER      CLOUDY    40  14  34 S9        30.16F
FITCHBURG      CLOUDY    44  16  32 S8        30.18F
ORANGE         PTCLDY    40  18  41 S5        30.18F
SPRINGFIELD    MOCLDY    42  17  36 S8        30.19S
WESTFIELD      CLOUDY    41  18  39 S12       30.19S
NORTH ADAMS    CLOUDY    43  15  32 MISG      30.11F
PITTSFIELD     PTCLDY    39  15  37 SE10      30.10F
$$

RIZALL-212300-
RHODE ISLAND

CITY           SKY/WX    TMP DP  RH WIND       PRES   REMARKS
PROVIDENCE     MOCLDY    40  27  59 S9        30.24S
NEWPORT        PTCLDY    38  28  67 S8        30.24S
BLOCK ISLAND   MOCLDY    39  29  67 S7        30.26F
SMITHFIELD     CLOUDY    40  23  50 S3        30.21F
WESTERLY       PTCLDY    40  28  62 S10       30.25F
$$

CTZALL-212300-
CONNECTICUT

CITY           SKY/WX    TMP DP  RH WIND       PRES   REMARKS
BRADLEY INTL   CLOUDY    42  17  36 S12       30.22R
HARTFORD       PTCLDY    43  23  45 S9        30.23S
BRIDGEPORT     CLEAR     41  28  60 SE6       30.23F
GROTON         CLOUDY    40  30  67 S10       30.24F
NEW HAVEN      NOT AVBL
CHESTER        FAIR      39  25  56 S5        30.23S
MERIDEN        CLOUDY    42  23  46 S9        30.23S
WILLIMANTIC    PTCLDY    43  18  36 SW8       30.22F
OXFORD         MOCLDY    39  21  48 S8        30.21F
$$

MEZ002-015-021-024-NHZ003-005-008-011-012-014-VTZ005-008-212300-
NORTHERN NEW ENGLAND

CITY           SKY/WX    TMP DP  RH WIND       PRES   REMARKS
PORTLAND ME    CLOUDY    34  22  61 S7        30.22F WCI  28
BANGOR ME      CLOUDY    35  10  35 S9        30.19F WCI  28
CONCORD NH     CLOUDY    40  19  43 SE6       30.17F
MANCHESTER NH  CLOUDY    43  14  31 S7        30.17F
NASHUA NH      PTCLDY    43  18  36 SE3       30.19S
PORTSMOUTH NH  CLOUDY    36  25  66 SE8       30.20F WCI  29
JAFFREY NH     PTCLDY    41  14  33 SW6       30.15F
KEENE NH       CLOUDY    41  15  35 S9        30.17S
BURLINGTON VT  CLOUDY    41  17  38 S16G26    30.03S
MT. WASHINGTON CLOUDY    30   7  37 SW35G46     N/A  WCI  14
$$

NYZ052-076-212300-
EASTERN NEW YORK

CITY           SKY/WX    TMP DP  RH WIND       PRES   REMARKS
ALBANY         CLOUDY    43  20  39 S15G21    30.10F
NEW YORK CITY  NOT AVBL
$$

ANZALL-212300-
MARINE OBSERVATIONS

STATION/POSITION TIME  TEMP    WIND        PRES    VSBY  WAVE
                       AIR SEA DIR/SP/G                  HT/PER
                 (UTC) (F)     (DEG/KT/KT) (MB)    (MI)  (FT/S)
BOSTON BUOY      2150   38 42  130/ 12/ 14 1022.7F         3/ 6
BUZZARDS BAY     2100   38     200/  9/  9 1025.0F
NANTUCKET SOUND  2150   38 39  120/  4/  6 1024.4F         1
MASS BAY-STELLWA 2104   38 41  140/ 10/ 12 1023.0F         4/ 6
ISLE OF SHOALS   2200   37     160/ 14/ 15 1023.1F
S OF BLOCK IS    2155      43                N/A           1/ 7
$$

......................KEY.........................
  SKY/WX - SKY CONDITION/PRESENT WEATHER
  TMP    - TEMPERATURE IN FAHRENHEIT
  DWPT   - DEWPOINT IN FAHRENHEIT
  RH     - RELATIVE HUMIDITY IN PERCENT
  WIND   - DIRECTION AND SPEED IN MPH
  PRES   - MEAN SEA LEVEL PRESSURE IN INCHES OF HG
  WCI    - WIND CHILL INDEX
  VSB    - VISIBILITY IN MILES
  HX     - HEAT INDEX
  TC     - TEMPERATURE IN CELSIUS
  VRB    - VARIABLE WIND DIRECTION
  N/A    - NOT AVAILABLE




USA.gov is the U.S. government's official web portal to all federal, state and local government web resources and services.